K4NSC-13 Weather Reports


Display with metric or nautical units.
time (UTC)temp
F
wind
direction
speed
MPH
gust
MPH
rain 1hr
in
rain 24hr
in
rain mn
in
humidity
%
barometer
mb
20260505101529 50 336 0.0 1.0 0.00 0.00 0.00 96 1016.7
20260505100529 51 0.0 0.0 0.00 0.00 0.00 95 1016.5
20260505095530 51 0.0 0.0 0.00 0.00 0.00 95 1016.5
20260505094529 51 0.0 0.0 0.00 0.00 0.00 94 1016.5
20260505093545 52 0.0 0.0 0.00 0.00 0.00 94 1016.4
20260505092529 52 0.0 0.0 0.00 0.00 0.00 93 1016.4
20260505091530 52 358 0.0 1.0 0.00 0.00 0.00 93 1016.4
20260505090530 52 3 0.0 0.0 0.00 0.00 0.00 92 1016.3
20260505085530 53 0.0 0.0 0.00 0.00 0.00 91 1016.3
20260505084530 53 0.0 0.0 0.00 0.00 0.00 90 1016.2
20260505083531 53 339 0.0 1.0 0.00 0.00 0.00 91 1016.2
20260505082556 53 341 0.0 1.0 0.00 0.00 0.00 91 1016.2
20260505081530 53 0.0 0.0 0.00 0.00 0.00 90 1016.1
20260505080531 53 3 0.0 1.0 0.00 0.00 0.00 90 1016.0
20260505075532 53 0.0 0.0 0.00 0.00 0.00 89 1015.9
20260505074552 54 353 0.0 1.0 0.00 0.00 0.00 89 1015.8
20260505073551 54 0.0 0.0 0.00 0.00 0.00 88 1015.8
20260505072531 54 6 0.0 1.0 0.00 0.00 0.00 87 1015.9
20260505071534 55 341 0.0 1.0 0.00 0.00 0.00 87 1015.9
20260505070552 55 347 0.0 0.0 0.00 0.00 0.00 86 1015.9
20260505065532 56 0.0 0.0 0.00 0.00 0.00 84 1015.8
20260505064534 56 239 0.0 0.0 0.00 0.00 0.00 84 1015.9
20260505063532 57 358 0.0 1.0 0.00 0.00 0.00 83 1016.0
20260505062517 57 0.0 0.0 0.00 0.00 0.00 82 1016.1
20260505061517 58 0.0 0.0 0.00 0.00 0.00 81 1016.1
20260505060538 60 96 0.0 1.0 0.00 0.00 0.00 79 1016.1
20260505055518 61 0.0 0.0 0.00 0.00 0.00 77 1016.1
20260505054555 62 184 2.0 5.0 0.00 0.00 0.00 73 1016.1
20260505053520 62 182 1.0 2.0 0.00 0.00 0.00 72 1016.1
20260505052539 63 180 2.0 4.0 0.00 0.00 0.00 71 1016.0
20260505051539 63 170 2.0 3.0 0.00 0.00 0.00 70 1016.2
20260505050519 63 187 2.0 4.0 0.00 0.00 0.00 69 1016.2
20260505041521 64 187 2.0 4.0 0.00 0.00 0.00 68 1016.3
20260505040519 63 191 2.0 3.0 0.00 0.00 0.00 68 1016.3
20260505035522 64 197 1.0 3.0 0.00 0.00 0.00 68 1016.3
20260505034520 64 214 1.0 3.0 0.00 0.00 0.00 67 1016.4
20260505033520 64 181 2.0 2.0 0.00 0.00 0.00 66 1016.4
20260505032601 65 199 1.0 2.0 0.00 0.00 0.00 66 1016.4
20260505031520 65 223 1.0 4.0 0.00 0.00 0.00 65 1016.3
20260505030521 65 292 1.0 3.0 0.00 0.00 0.00 65 1016.3
20260505025521 66 188 1.0 2.0 0.00 0.00 0.00 64 1016.4
20260505024521 66 229 2.0 4.0 0.00 0.00 0.00 64 1016.4
20260505023541 67 323 1.0 4.0 0.00 0.00 0.00 63 1016.2
20260505022521 67 248 2.0 5.0 0.00 0.00 0.00 63 1016.2
20260505021532 67 155 2.0 5.0 0.00 0.00 0.00 63 1016.1
20260505020518 68 254 1.0 5.0 0.00 0.00 0.00 62 1015.9
20260505015519 68 333 2.0 6.0 0.00 0.00 0.00 62 1015.8
20260505014519 68 342 2.0 6.0 0.00 0.00 0.00 61 1015.6
20260505013522 68 328 2.0 5.0 0.00 0.00 0.00 60 1015.5
20260505012519 69 335 2.0 5.0 0.00 0.00 0.00 58 1015.4
20260505011543 69 294 2.0 5.0 0.00 0.00 0.00 57 1015.3
20260505010520 68 208 2.0 7.0 0.00 0.00 0.00 55 1015.1
20260505005523 67 322 1.0 1.0 0.00 0.00 0.00 56 1014.9
20260505004525 67 332 1.0 2.0 0.00 0.00 0.00 54 1014.7
20260505003545 68 321 2.0 2.0 0.00 0.00 0.00 53 1014.6
20260505002533 68 319 1.0 2.0 0.00 0.00 0.00 54 1014.4
20260505001524 70 330 1.0 2.0 0.00 0.00 0.00 51 1014.3
20260505000539 72 315 0.0 2.0 0.00 0.00 0.00 48 1014.2
20260504235524 74 340 0.0 1.0 0.00 0.00 0.00 44 1014.1
20260504234524 75 339 1.0 3.0 0.00 0.00 0.00 40 1014.0
20260504233544 76 322 1.0 3.0 0.00 0.00 0.00 39 1014.0
20260504232524 77 183 2.0 3.0 0.00 0.00 0.00 38 1013.9
20260504231524 78 170 2.0 4.0 0.00 0.00 0.00 38 1013.9
20260504230525 78 193 2.0 6.0 0.00 0.00 0.00 37 1014.0
20260504225525 78 213 2.0 4.0 0.00 0.00 0.00 37 1014.1
20260504224522 79 153 3.0 7.0 0.00 0.00 0.00 35 1014.0
20260504223523 80 203 3.0 6.0 0.00 0.00 0.00 34 1014.0
20260504222522 80 165 2.0 6.0 0.00 0.00 0.00 35 1014.0
20260504221522 80 167 3.0 7.0 0.00 0.00 0.00 36 1013.9
20260504220522 79 156 2.0 5.0 0.00 0.00 0.00 35 1013.9
20260504215542 80 2 3.0 9.0 0.00 0.00 0.00 36 1013.8
20260504214522 81 334 3.0 7.0 0.00 0.00 0.00 35 1013.7
20260504213522 81 132 4.0 6.0 0.00 0.00 0.00 35 1013.8
20260504212522 81 167 3.0 6.0 0.00 0.00 0.00 33 1013.8
20260504211545 81 272 2.0 6.0 0.00 0.00 0.00 33 1013.8
20260504210523 80 126 3.0 9.0 0.00 0.00 0.00 34 1013.7
20260504205518 80 316 4.0 7.0 0.00 0.00 0.00 34 1013.8
20260504204524 81 139 2.0 7.0 0.00 0.00 0.00 34 1013.8
20260504203523 81 153 4.0 8.0 0.00 0.00 0.00 35 1013.8
20260504202524 81 134 2.0 5.0 0.00 0.00 0.00 34 1013.9
20260504201544 81 271 3.0 8.0 0.00 0.00 0.00 34 1014.1
20260504200518 80 174 3.0 5.0 0.00 0.00 0.00 35 1014.1
20260504195559 80 136 3.0 5.0 0.00 0.00 0.00 34 1014.2
20260504194518 80 153 3.0 6.0 0.00 0.00 0.00 33 1014.4
20260504193519 80 142 4.0 6.0 0.00 0.00 0.00 34 1014.6
20260504192525 79 133 2.0 6.0 0.00 0.00 0.00 34 1014.8
20260504191518 79 140 4.0 6.0 0.00 0.00 0.00 34 1015.0
20260504190519 79 293 3.0 7.0 0.00 0.00 0.00 36 1015.1
20260504185548 79 139 2.0 4.0 0.00 0.00 0.00 36 1015.4
20260504184519 79 153 4.0 7.0 0.00 0.00 0.00 36 1015.5
20260504183519 79 330 3.0 8.0 0.00 0.00 0.00 36 1015.6
20260504182522 78 135 3.0 6.0 0.00 0.00 0.00 37 1015.7
20260504181523 78 287 3.0 5.0 0.00 0.00 0.00 37 1015.8
20260504180539 78 127 3.0 6.0 0.00 0.00 0.00 37 1015.9
20260504175520 77 135 3.0 7.0 0.00 0.00 0.00 37 1015.9
20260504174520 77 131 2.0 5.0 0.00 0.00 0.00 39 1016.1
20260504173520 76 147 4.0 8.0 0.00 0.00 0.00 38 1016.2
20260504172520 76 149 4.0 7.0 0.00 0.00 0.00 39 1016.4
20260504171559 75 357 2.0 5.0 0.00 0.00 0.00 40 1016.5
20260504170537 75 130 3.0 5.0 0.00 0.00 0.00 41 1016.6
20260504150551 71 156 2.0 4.0 0.00 0.00 0.00 51 1018.0
20260504140531 67 191 2.0 3.0 0.00 0.00 0.00 62 1018.2
20260504130533 61 151 1.0 2.0 0.00 0.00 0.00 78 1018.6
20260504110519 47 0.0 0.0 0.00 0.00 0.00 98 1018.5